Regional Weather Roundup
Issued by NWS

Home | Current Version | Previous Version | Text Only | Print | Product List | Glossary Off
Versions: 1 2 3 4 5 6 7 8 9 10 11 12 13 14 15 16 17 18 19 20 21 22 23 24 25 26 27 28 29 30 31 32 33 34 35 36 37 38 39 40 41 42 43 44 45 46 47 48 49 50

883
ASUS43 KOAX 241210
RWRNE

WEATHER ROUNDUP FOR NEBRASKA
NATIONAL WEATHER SERVICE OMAHA NE
600 AM CST TUE JAN 24 2017

NOTES: SATELLITE DATA IS BEING USED TO AUGMENT CLOUD COVER ABOVE
       12000 FEET.
       "FAIR" INDICATES FEW OR NO CLOUDS BELOW 12,000 FEET WITH NO
       SIGNIFICANT WEATHER AND/OR OBSTRUCTIONS TO VISIBILITY.

  * THESE STATIONS DO NOT REPORT WEATHER SUCH AS RAIN...SNOW OR FOG.

NEZ001>004-019>022-054>056-241300-
NEBRASKA PANHANDLE

CITY           SKY/WX    TMP DP  RH WIND       PRES   REMARKS
SCOTTSBLUFF    LGT SNOW  23  20  88 N9        29.60S VSB 3/4 WCI  13
6HR MIN TEMP:  23; 6HR MAX TEMP:  30; 6HR PCP:  0.29;

ALLIANCE       FOG       23  21  92 N16       29.57F VSB 1/2 WCI  10
6HR MIN TEMP:  23; 6HR MAX TEMP:  26; 6HR PCP: TRACE;

CHADRON        LGT SNOW  23  21  92 N8        29.68R FOG     WCI  14
6HR MIN TEMP:  23; 6HR MAX TEMP:  24; 6HR PCP: TRACE;

KIMBALL        LGT SNOW  24  24 100 N13       29.53R WCI  13
SIDNEY         MIX PCPN  27  24  89 NE16      29.52R WCI  15
6HR MIN TEMP:  27; 6HR MAX TEMP:  34; 6HR PCP: TRACE;

$$

NEZ057>060-069>072-079>082-241300-
SOUTHWEST NEBRASKA

CITY           SKY/WX    TMP DP  RH WIND       PRES   REMARKS
NORTH PLATTE   CLOUDY    31  30  96 E10       29.55S FOG     WCI  22
6HR MIN TEMP:  31; 6HR MAX TEMP:  33;

IMPERIAL       CLOUDY    31  29  92 NE13      29.50F FOG     WCI  21
6HR MIN TEMP:  31; 6HR MAX TEMP:  34;

LEXINGTON      CLOUDY    32  31  96 E12       29.54R FOG     WCI  23
MCCOOK         CLOUDY    32  32 100 NE13      29.47F FOG     WCI  22
6HR MIN TEMP:  32; 6HR MAX TEMP:  33;

OGALLALA       CLOUDY    32  31  96 NE12      29.53S FOG     WCI  23
$$

NEZ005>010-023>029-035>040-094-241300-
NORTH CENTRAL NEBRASKA

CITY           SKY/WX    TMP DP  RH WIND       PRES   REMARKS
VALENTINE      LGT SNOW  30  28  92 NE8       29.65F VSB 3/4 WCI  22
6HR MIN TEMP:  30; 6HR MAX TEMP:  31; 6HR PCP:  0.01;

AINSWORTH      SNOW      30  30 100 E9        29.64F VSB 1/4 WCI  22
BROKEN BOW     CLOUDY    31  31 100 E10       29.56F FOG     WCI  22
6HR MIN TEMP:  31; 6HR MAX TEMP:  32;

O`NEILL        FOG       31  31 100 E7        29.70S VSB 1   WCI  25
ORD            MIX PCPN  31  29  92 E10       29.62F FOG     WCI  22
6HR MIN TEMP:  31; 6HR MAX TEMP:  31; 6HR PCP: TRACE;

THEDFORD       SNOW      31  31  99 NE12      29.60F VSB 1/2 WCI  21
$$

NEZ041-046>049-061>064-073>077-083>087-241300-
SOUTH CENTRAL NEBRASKA

CITY           SKY/WX    TMP DP  RH WIND       PRES   REMARKS
GRAND ISLAND   CLOUDY    31  31 100 E17       29.60F FOG     WCI  19
6HR MIN TEMP:  30; 6HR MAX TEMP:  32;

AURORA         CLOUDY    31  31 100 E18       29.61F FOG     WCI  19
HASTINGS       MOCLDY    32  30  92 E14       29.57F FOG     WCI  22
6HR MIN TEMP:  32; 6HR MAX TEMP:  33;

HEBRON         CLOUDY    32  31  96 E13G20    29.60F FOG     WCI  22
HOLDREGE       CLOUDY    32  31  95 E16       29.53F FOG     WCI  21
KEARNEY *      CLOUDY    32  28  86 E16       29.56S WCI  21
YORK           PTCLDY    32  32 100 E21       29.63F FOG     WCI  20
$$

NEZ011>018-030>034-042>045-241300-
NORTHEAST NEBRASKA

CITY           SKY/WX    TMP DP  RH WIND       PRES   REMARKS
NORFOLK        CLOUDY    30  28  92 E10       29.71R FOG     WCI  21
6HR MIN TEMP:  29; 6HR MAX TEMP:  30;

ALBION         CLOUDY    32  30  92 E10       29.67F FOG     WCI  24
BLAIR          CLOUDY    30  30  98 E12       29.74S FOG     WCI  21
FREMONT        CLOUDY    30  30 100 E8        29.75R FOG     WCI  23
TEKAMAH        CLOUDY    31  28  89 E10       29.77F WCI  22
6HR MIN TEMP:  31; 6HR MAX TEMP:  31;

WAYNE          CLOUDY    30  29  96 E10       29.74F WCI  21
$$

NEZ050>053-065>068-078-088>093-241300-
SOUTHEAST NEBRASKA

CITY           SKY/WX    TMP DP  RH WIND       PRES   REMARKS
LINCOLN        CLOUDY    31  30  96 E9        29.72F FOG     WCI  23
6HR MIN TEMP:  30; 6HR MAX TEMP:  31;

OMAHA EPPLEY   CLOUDY    30  26  85 E12       29.77F WCI  20
6HR MIN TEMP:  30; 6HR MAX TEMP:  31;

BEATRICE       CLOUDY    32  31  96 E14       29.66F FOG     WCI  22
FALLS CITY     CLOUDY    31  29  92 E16       29.72F WCI  20
6HR MIN TEMP:  29; 6HR MAX TEMP:  31;

NEBRASKA CITY  CLOUDY    30  30 100 E12       29.73F FOG     WCI  21
PLATTSMOUTH    FOG       30  28  92 E14       29.73F VSB 1   WCI  19
$$

NEZ044-045-051>053-067-241300-
OMAHA AREA

CITY           SKY/WX    TMP DP  RH WIND       PRES   REMARKS
OMAHA EPPLEY   CLOUDY    30  26  85 E12       29.77F WCI  20
6HR MIN TEMP:  30; 6HR MAX TEMP:  31;

BLAIR          CLOUDY    30  30  98 E12       29.74S FOG     WCI  21
FREMONT        CLOUDY    30  30 100 E8        29.75R FOG     WCI  23
MILLARD        CLOUDY    32  31  95 E6        29.76F FOG     WCI  26
OFFUTT AFB     CLOUDY    30  30 100 E13       29.75F WCI  20
PLATTSMOUTH    FOG       30  28  92 E14       29.73F VSB 1   WCI  19
WAHOO          CLOUDY    31  30  96 E12       29.74S FOG     WCI  21
$$




USA.gov is the U.S. government's official web portal to all federal, state and local government web resources and services.